1998-067SW (49277 NORAD) Tracking and Keplerian Element Data

This shows tracking and keplerian element data for the satellite.

Feedback or suggestion? Click here.




ElementValue
Catalog49277
Name1998-067SW
Epoch Orbit855
Epoch Day340.17768674
Epoch Year2021
RAAN211.5844
Inclination51.6392
Eccentricity0.0004163
Argument of Perigee327.7221
Mean Anonmoly32.3513
Mean Motion15.51471847
Decay Rate0.00014452
L11 49277U 98067SW 21340.17768674 .00014452 00000+0 24754-3 0 9995
L22 49277 51.6392 211.5844 0004163 327.7221 32.3513 15.51471847 8558

Live tracking and technical data element details for 1998-067SW (NORAD 49277). 1998-067SW can be tracked NOW for your location showing map with azimuth and elevation plus other details from your city location.

Track the satellite on the map from your city or location and see movement details for azimuth, elevation, latitude, longitude, range, height, and movement on the map or in text.







IsCatalogInMostPopularTable: catalog: 49277, numindb: 4
Update: records affected: 1



GetName: 49277 1998-067SW

Hit Count: updated at: Mon, 06 Dec 2021 15:26:09 GMT